KA6YAK Weather Reports


time (UTC)temp
C
wind
direction
speed
KPH
gust
KPH
rain 1hr
cm
rain 24hr
cm
rain mn
cm
humidity
%
barometer
mb
20260503030216 13 34 4.8 6.4 0.00 0.00 0.00 54 1014.4
20260503025214 14 77 1.6 3.2 0.00 0.00 0.00 48 1014.1
20260503024653 16 338 1.6 3.2 0.00 0.00 0.00 42 1014.4
20260503024126 17 43 1.6 4.8 0.00 0.00 0.00 40 1014.4
20260503022210 18 320 3.2 4.8 0.00 0.00 0.00 40 1014.4
20260503021210 20 340 1.6 3.2 0.00 0.00 0.00 40 1014.4
20260503020645 21 350 0.0 3.2 0.00 0.00 0.00 40 1014.4
20260503015207 20 346 1.6 3.2 0.00 0.00 0.00 38 1014.1
20260503014205 20 20 1.6 4.8 0.00 0.00 0.00 37 1014.1
20260503013203 21 24 3.2 6.4 0.00 0.00 0.00 35 1014.4
20260503012201 22 342 3.2 4.8 0.00 0.00 0.00 34 1014.4
20260503011201 23 330 3.2 6.4 0.00 0.00 0.00 33 1014.7
20260503010157 23 29 1.6 3.2 0.00 0.00 0.00 30 1014.7
20260503005157 23 22 1.6 9.7 0.00 0.00 0.00 31 1014.4
20260503004157 23 41 3.2 6.4 0.00 0.00 0.00 29 1014.7
20260503003153 23 18 4.8 11.3 0.00 0.00 0.00 28 1014.7
20260503002152 23 24 8.0 11.3 0.00 0.00 0.00 31 1014.7
20260503001644 24 34 8.0 12.9 0.00 0.00 0.00 31 1014.7
20260503000149 24 16 9.7 12.9 0.00 0.00 0.00 32 1014.7
20260502235149 23 22 8.0 14.5 0.00 0.00 0.00 34 1014.7
20260502234148 21 7 6.4 14.5 0.00 0.00 0.00 37 1015.2
20260502233145 20 3 6.4 17.7 0.00 0.00 0.00 39 1015.2
20260502232629 20 39 6.4 12.9 0.00 0.00 0.00 39 1015.2
20260502231144 21 8 8.0 14.5 0.00 0.00 0.00 40 1015.5
20260502230141 21 1 8.0 16.1 0.00 0.00 0.00 39 1015.5
20260502225620 20 357 9.7 16.1 0.00 0.00 0.00 38 1015.5
20260502224140 21 342 11.3 14.5 0.00 0.00 0.00 37 1016.0
20260502223136 22 347 11.3 17.7 0.00 0.00 0.00 36 1015.5
20260502222135 22 356 6.4 11.3 0.00 0.00 0.00 37 1016.0
20260502221618 22 289 3.2 11.3 0.00 0.00 0.00 36 1015.5
20260502220132 22 300 4.8 9.7 0.00 0.00 0.00 36 1016.0
20260502215131 22 333 4.8 9.7 0.00 0.00 0.00 37 1016.0
20260502215044 22 347 6.4 9.7 0.00 0.00 0.00 35 1016.3
20260502213129 22 351 6.4 14.5 0.00 0.00 0.00 34 1016.0
20260502212126 23 27 6.4 6.4 0.00 0.00 0.00 35 1016.3
20260502211126 23 48 3.2 6.4 0.00 0.00 0.00 35 1016.7
20260502210124 23 268 1.6 11.3 0.00 0.00 0.00 35 1016.7
20260502205122 23 280 8.0 11.3 0.00 0.00 0.00 36 1016.7
20260502204122 24 17 4.8 14.5 0.00 0.00 0.00 35 1016.7
20260502203119 23 342 6.4 11.3 0.00 0.00 0.00 38 1017.1
20260502202118 22 355 6.4 11.3 0.00 0.00 0.00 42 1016.7
20260502201117 21 2 4.8 11.3 0.00 0.00 0.00 37 1017.1
20260502200115 21 332 4.8 14.5 0.00 0.00 0.00 43 1017.1
20260502195114 21 339 6.4 14.5 0.00 0.00 0.00 43 1017.1
20260502194113 20 352 8.0 12.9 0.00 0.00 0.00 45 1017.4
20260502193111 20 282 9.7 12.9 0.00 0.00 0.00 45 1017.4
20260502192551 20 349 9.7 12.9 0.00 0.00 0.00 45 1017.4
20260502191546 19 338 6.4 12.9 0.00 0.00 0.00 46 1017.8
20260502190106 18 333 4.8 11.3 0.00 0.00 0.00 47 1017.4
20260502185105 18 338 6.4 11.3 0.00 0.00 0.00 47 1017.4
20260502184105 18 357 9.7 16.1 0.00 0.00 0.00 48 1018.2
20260502183544 18 333 1.6 12.9 0.00 0.00 0.00 47 1018.2
20260502182546 18 14 6.4 12.9 0.00 0.00 0.00 48 1017.8
20260502181101 17 286 8.0 12.9 0.00 0.00 0.00 48 1017.8
20260502164048 15 9 4.8 9.7 0.00 0.00 0.00 52 1018.6
20260502163045 15 307 6.4 9.7 0.00 0.00 0.00 53 1019.0
20260502162043 14 350 4.8 11.3 0.00 0.00 0.00 53 1019.0
20260502161043 15 323 6.4 11.3 0.00 0.00 0.00 52 1019.0
20260502151035 12 317 1.6 6.4 0.00 0.00 0.00 54 1019.0
20260502123011 2 334 1.6 3.2 0.00 0.00 0.00 72 1019.0
20260502122445 2 338 0.0 0.0 0.00 0.00 0.00 71 1019.0
20260502121009 2 232 0.0 4.8 0.00 0.00 0.00 69 1018.6
20260502115005 4 110 6.4 9.7 0.00 0.00 0.00 70 1019.0
20260502114638 3 72 4.8 6.4 0.00 0.00 0.00 71 1019.0
20260502113635 3 81 1.6 4.8 0.00 0.00 0.00 71 1019.0
20260502112127 3 81 3.2 4.8 0.00 0.00 0.00 71 1019.0
20260502111627 3 105 3.2 4.8 0.00 0.00 0.00 70 1019.0
20260502110121 3 124 3.2 4.8 0.00 0.00 0.00 69 1019.0
20260502105118 3 143 1.6 3.2 0.00 0.00 0.00 68 1019.0
20260502104116 4 233 1.6 4.8 0.00 0.00 0.00 68 1018.6
20260502103111 4 198 3.2 3.2 0.00 0.00 0.00 69 1018.6
20260502102610 3 124 0.0 1.6 0.00 0.00 0.00 70 1018.6
20260502101107 3 257 1.6 3.2 0.00 0.00 0.00 70 1018.6
20260502100605 4 260 1.6 4.8 0.00 0.00 0.00 69 1018.6
20260502091049 3 112 8.0 12.9 0.00 0.00 0.00 69 1018.2
20260502071011 7 134 9.7 20.9 0.00 0.00 0.00 62 1017.8
20260502070009 6 128 8.0 17.7 0.00 0.00 0.00 63 1017.8
20260502070005 6 124 9.7 14.5 0.00 0.00 0.00 64 1018.2
20260502064001 6 95 11.3 16.1 0.00 0.00 0.00 61 1017.8
20260502062955 7 92 14.5 17.7 0.00 0.00 0.00 62 1017.8
20260502061954 6 103 11.3 16.1 0.00 0.00 0.00 64 1017.8
20260502060951 7 105 9.7 16.1 0.00 0.00 0.00 63 1017.8
20260502060447 7 101 11.3 14.5 0.00 0.00 0.00 62 1017.8
20260502054945 7 89 9.7 12.9 0.00 0.00 0.00 61 1017.8
20260502053944 7 104 8.0 11.3 0.00 0.00 0.00 61 1017.4
20260502052939 8 107 4.8 9.7 0.00 0.00 0.00 56 1017.8
20260502051935 8 117 4.8 16.1 0.00 0.00 0.00 55 1017.8
20260502050935 8 136 11.3 27.4 0.00 0.00 0.00 54 1017.8
20260502045929 8 107 16.1 22.5 0.00 0.00 0.00 55 1017.4
20260502044926 8 80 14.5 20.9 0.00 0.00 0.00 58 1017.4
20260502043927 8 127 14.5 22.5 0.00 0.00 0.00 58 1017.4
20260502042922 8 46 8.0 22.5 0.00 0.00 0.00 57 1017.4
20260502042418 8 51 8.0 14.5 0.00 0.00 0.00 55 1017.1
20260502040917 10 88 8.0 14.5 0.00 0.00 0.00 53 1017.1
20260502035911 11 51 14.5 25.7 0.00 0.00 0.00 49 1017.4
20260502034909 11 117 17.7 25.7 0.00 0.00 0.00 49 1017.1
20260502033907 10 189 12.9 24.1 0.00 0.00 0.00 51 1017.1
20260502032903 11 81 17.7 24.1 0.00 0.00 0.00 50 1017.1
20260502031859 11 99 16.1 24.1 0.00 0.00 0.00 48 1017.1